Location: Unspecified
(35.7250°N, 0.0000°E)
Time: 10:07:42
(UTC+00:00)

Explorer 7 - Pass Details

Date: 23 June 2019
Orbit: 485 x 680 km, 50.3° (Epoch: 18 July)

Event Time Altitude Azimuth Distance (km) Brightness Sun altitude
Rises 10:25:04 0° 293° (WNW) 2,818 10.2 65.7°
Reaches altitude 10° 10:28:19 10° 319° (NW) 1,965 9.5 66.3°
Maximum altitude 10:30:45 14° 351° (N) 1,735 9.4 66.7°
Drops below altitude 10° 10:33:16 10° 24° (NNE) 2,029 9.8 67.2°
Sets 10:36:43 0° 49° (NE) 2,977 10.7 67.8°
